Regional Weather Roundup
Issued by NWS Jackson, KY

Home | Current Version | Previous Version | Graphics & Text | Print | Product List | Glossary On
Versions: 1 2 3 4 5 6 7 8 9 10 11 12 13 14 15 16 17 18 19 20 21 22 23 24 25 26 27 28 29 30 31 32 33 34 35 36 37 38 39 40 41 42 43 44 45 46 47 48 49 50
455
ASUS43 KJKL 230110
RWRJKL

EAST KENTUCKY HOURLY WEATHER ROUNDUP
NATIONAL WEATHER SERVICE JACKSON KY
900 PM EDT SUN OCT 22 2017

NOTE: "FAIR" INDICATES FEW OR NO CLOUDS BELOW 12,000 FEET WITH
NO SIGNIFICANT WEATHER AND/OR OBSTRUCTIONS TO VISIBILITY.

* THESE REPORTS ARE NOT UNDER NWS QUALITY CONTROL AND MAY NOT
  REPORT WEATHER SUCH AS PRECIPITATION AND FOG.

KYZ079-080-083-085-087-088-110-112-115-119-120-230200
...EASTERN KENTUCKY...

CITY           SKY/WX    TMP DP  RH WIND       PRES   REMARKS
JACKSON        PTCLDY    69  49  48 VRB3      30.15F
LONDON         PTCLDY    66  51  58 CALM      30.12F
SOMERSET*      MOCLDY    66  52  59 SE3       30.11F
MONTICELLO*    PTCLDY    67  57  70 SE6       30.11F
WILLIAMSBURG*  PTCLDY    66  54  63 SE7       30.12F
MIDDLESBORO*   MOCLDY    60  56  86 CALM      30.15F
HARLAN APT*    CLOUDY    64  52  63 E6        30.18R
PIKE CO APT*     N/A     68  51  54 SE7       30.18S
BIG SANDY APT* PTCLDY    65  53  64 SE7       30.17R
MOREHEAD APT*  CLOUDY    66  50  55 CALM      30.15S
$$

KYZ035-036-041-042-044-050-067-078-099-230200
...CENTRAL KENTUCKY...

CITY           SKY/WX    TMP DP  RH WIND       PRES   REMARKS
MT STERLING*   PTCLDY    64  54  68 SE6       30.13F
FLEMING/MASON* PTCLDY    63  51  64 SE8       30.13F
DANVILLE*      CLOUDY    66  54  63 SE6       30.09F
LEXINGTON      MOCLDY    69  54  58 SE8       30.09F
FRANKFORT      CLOUDY    68  53  58 SE7       30.07F
LOUISVILLE     CLOUDY    73  58  59 E8        30.02S
LEBANON*         N/A     68  57  68 CALM      30.06F
GLASGOW*       CLOUDY    71  58  64 SE8       30.03S
BOWLING GREEN  CLOUDY    70  60  70 E6        30.00F
$$

KYZ091>093-OHZ055-061-077-WVZ005-015-034-035-042-230200
...SOUTHERN OHIO/WEST VIRGINIA...

CITY           SKY/WX    TMP DP  RH WIND       PRES   REMARKS
COVINGTON      CLOUDY    67  54  63 SE10      30.07F
COLUMBUS       CLOUDY    65  53  65 SE6       30.12S
DAYTON         CLOUDY    66  51  58 SE8       30.10F
WILMINGTON     CLOUDY    62  49  62 SE7       30.11F
HUNTINGTON     CLOUDY    63  53  70 CALM      30.14S
CHARLESTON     PTCLDY    71  43  36 SE9G18    30.16S
PINEVILLE*     CLOUDY    61  50  68 MISG      30.30R
BECKLEY        PTCLDY    61  46  57 S10       30.27R
BLUEFIELD      PTCLDY    60  47  61 VRB5G17   30.30R
LOGAN CO APT*    N/A     70  48  46 S9        30.19S
$$

VAZ002-007-008-TNZ017-027-036-066-071-230200
...SOUTHWEST VIRGINIA/EAST TENNESSEE...

CITY           SKY/WX    TMP DP  RH WIND       PRES   REMARKS
WISE*          CLOUDY    64  52  63 S7        30.25F
JONESVILLE*      N/A     68  54  60 CALM      30.20S
ABINGDON*      MOCLDY    67  53  59 S10       30.25F
BRISTOL        MOCLDY    66  54  65 CALM      30.22S
MORRISTOWN*    CLEAR     68  55  64 SE8G15    30.16F
SEVIERVILLE*   CLOUDY    68  55  64 CALM      30.14F
KNOXVILLE      MOCLDY    68  58  70 E6        30.11F
LAFOLLETTE*    MOCLDY    63  59  88 CALM      30.16F
OAK RIDGE      PTCLDY    65  62  90 CALM      30.12F
CROSSVILLE     MOCLDY    66  57  72 VRB5      30.13F
NASHVILLE      CLOUDY    74  61  63 SE9       29.99F
$$

...KEY TO REMARKS...
VSB - VISIBILITY IN MILES
WCI - WIND CHILL INDEX
HX  - HEAT INDEX

$$




USA.gov is the U.S. government's official web portal to all federal, state and local government web resources and services.